When you browse on this site, cookies collect data to enhance your experience and personalize the content and advertising you see.
Visit our Privacy Policy to learn more. By continuing to use the site, you agree to this use of cookies and data.
  • In Hungary
  • List of Countries
  • For 7 days
  • Water Temperature
  • Weather Map
  • News
  • Weather Widgets
  • user-avatar
    Login

    Hourly Weather Baltiyka

    Today, 19 October, Saturday

    Time Temperature Precipitation Wind Pressure Humidity
    00:00 +10°C° 0 mm 2 mps 756 mmHg 81%
    01:00 +10°C° 0 mm 2 mps 756 mmHg 83%
    02:00 +10°C° 0 mm 2 mps 756 mmHg 86%
    03:00 +10°C° 0 mm 2 mps 756 mmHg 89%
    04:00 +10°C° 0 mm 2 mps 757 mmHg 90%
    05:00 +10°C° 0 mm 2 mps 757 mmHg 91%
    06:00 +10°C° 0 mm 2 mps 757 mmHg 91%
    07:00 +12°C° 0 mm 2 mps 757 mmHg 88%
    08:00 +13°C° 0 mm 2 mps 758 mmHg 84%
    09:00 +14°C° 0 mm 2 mps 758 mmHg 80%
    10:00 +15°C° 0 mm 2 mps 758 mmHg 74%
    11:00 +16°C° 0 mm 2 mps 758 mmHg 68%
    12:00 +17°C° 0 mm 2 mps 758 mmHg 63%
    13:00 +17°C° 0 mm 3 mps 758 mmHg 58%
    14:00 +17°C° 0 mm 3 mps 759 mmHg 54%
    15:00 +18°C° 0 mm 3 mps 759 mmHg 50%
    16:00 +16°C° 0 mm 3 mps 759 mmHg 59%
    17:00 +13°C° 0 mm 3 mps 759 mmHg 68%
    18:00 +12°C° 0 mm 3 mps 759 mmHg 78%
    19:00 +11°C° 0 mm 3 mps 760 mmHg 80%
    20:00 +10°C° 0 mm 3 mps 760 mmHg 81%
    21:00 +9°C° 0 mm 3 mps 761 mmHg 83%
    22:00 +9°C° 0 mm 3 mps 761 mmHg 85%
    23:00 +8°C° 0 mm 3 mps 761 mmHg 87%

    Tomorrow, 20 October, Sunday

    Time Temperature Precipitation Wind Pressure Humidity
    00:00 +8°C° 0 mm 3 mps 761 mmHg 89%
    01:00 +7°C° 0 mm 3 mps 762 mmHg 88%
    02:00 +7°C° 0 mm 2 mps 762 mmHg 88%
    03:00 +7°C° 0 mm 2 mps 762 mmHg 87%
    04:00 +6°C° 0 mm 2 mps 763 mmHg 89%
    05:00 +6°C° 0 mm 2 mps 763 mmHg 90%
    06:00 +6°C° 0 mm 2 mps 763 mmHg 91%
    07:00 +7°C° 0 mm 2 mps 763 mmHg 84%
    08:00 +8°C° 0 mm 3 mps 763 mmHg 77%
    09:00 +10°C° 0 mm 3 mps 764 mmHg 70%
    10:00 +10°C° 0 mm 3 mps 764 mmHg 67%
    11:00 +12°C° 0 mm 2 mps 764 mmHg 63%
    12:00 +13°C° 0 mm 2 mps 764 mmHg 60%
    13:00 +13°C° 0 mm 2 mps 764 mmHg 60%
    14:00 +13°C° 0 mm 2 mps 764 mmHg 60%
    15:00 +13°C° 0 mm 2 mps 764 mmHg 60%
    16:00 +12°C° 0 mm 2 mps 764 mmHg 64%
    17:00 +10°C° 0 mm 2 mps 764 mmHg 69%
    18:00 +9°C° 0 mm 2 mps 764 mmHg 74%
    19:00 +8°C° 0 mm 2 mps 764 mmHg 76%
    20:00 +8°C° 0 mm 2 mps 765 mmHg 79%
    21:00 +9°C° 0 mm 1 mps 765 mmHg 81%
    22:00 +8°C° 0 mm 1 mps 765 mmHg 83%
    23:00 +8°C° 0 mm 1 mps 765 mmHg 84%

    Day after tomorrow, 21 October, Monday

    Time Temperature Precipitation Wind Pressure Humidity
    00:00 +8°C° 0 mm 1 mps 765 mmHg 86%
    01:00 +8°C° 0 mm 1 mps 765 mmHg 86%
    02:00 +8°C° 0 mm 1 mps 765 mmHg 86%
    03:00 +8°C° 0 mm 1 mps 765 mmHg 87%
    04:00 +8°C° 0 mm 1 mps 765 mmHg 86%
    05:00 +8°C° 0 mm 1 mps 765 mmHg 85%
    06:00 +8°C° 0 mm 1 mps 765 mmHg 84%
    07:00 +9°C° 0 mm 1 mps 765 mmHg 78%
    08:00 +10°C° 0 mm 2 mps 765 mmHg 71%
    09:00 +12°C° 0 mm 2 mps 765 mmHg 65%
    10:00 +13°C° 0 mm 2 mps 765 mmHg 61%
    11:00 +13°C° 0 mm 3 mps 765 mmHg 57%
    12:00 +14°C° 0 mm 3 mps 765 mmHg 53%
    13:00 +14°C° 0 mm 3 mps 764 mmHg 52%
    14:00 +16°C° 0 mm 3 mps 764 mmHg 52%
    15:00 +16°C° 0 mm 3 mps 764 mmHg 51%
    16:00 +13°C° 0 mm 3 mps 764 mmHg 56%
    17:00 +12°C° 0 mm 3 mps 763 mmHg 61%
    18:00 +11°C° 0 mm 3 mps 763 mmHg 66%
    19:00 +10°C° 0 mm 3 mps 763 mmHg 68%
    20:00 +10°C° 0 mm 3 mps 763 mmHg 70%
    21:00 +9°C° 0 mm 3 mps 763 mmHg 72%
    22:00 +9°C° 0 mm 3 mps 762 mmHg 74%
    23:00 +9°C° 0 mm 3 mps 762 mmHg 75%

    22 October, Tuesday

    Time Temperature Precipitation Wind Pressure Humidity
    00:00 +8°C° 0 mm 4 mps 762 mmHg 77%
    01:00 +7°C° 0 mm 4 mps 761 mmHg 78%
    02:00 +7°C° 0 mm 4 mps 761 mmHg 80%
    03:00 +7°C° 0 mm 4 mps 761 mmHg 82%
    04:00 +7°C° 0 mm 4 mps 760 mmHg 82%
    05:00 +7°C° 0 mm 4 mps 760 mmHg 82%
    06:00 +7°C° 0 mm 4 mps 760 mmHg 81%
    07:00 +8°C° 0 mm 5 mps 760 mmHg 76%
    08:00 +9°C° 0 mm 5 mps 760 mmHg 71%
    09:00 +10°C° 0 mm 5 mps 760 mmHg 66%
    10:00 +12°C° 0 mm 5 mps 759 mmHg 65%
    11:00 +13°C° 0 mm 5 mps 759 mmHg 64%
    12:00 +14°C° 0 mm 4 mps 759 mmHg 63%
    13:00 +13°C° 0.1 mm 4 mps 759 mmHg 67%
    14:00 +13°C° 0.1 mm 4 mps 759 mmHg 71%
    15:00 +12°C° 0.1 mm 4 mps 759 mmHg 75%
    16:00 +12°C° 0.1 mm 3 mps 759 mmHg 80%
    17:00 +11°C° 0.1 mm 3 mps 759 mmHg 85%
    18:00 +12°C° 0.1 mm 2 mps 759 mmHg 90%
    19:00 +10°C° 0 mm 2 mps 759 mmHg 91%
    20:00 +10°C° 0 mm 2 mps 759 mmHg 92%
    21:00 +9°C° 0 mm 2 mps 760 mmHg 93%
    22:00 +9°C° 0 mm 2 mps 760 mmHg 93%
    23:00 +9°C° 0 mm 2 mps 760 mmHg 93%

    23 October, Wednesday

    Time Temperature Precipitation Wind Pressure Humidity
    00:00 +8°C° 0 mm 2 mps 760 mmHg 92%
    01:00 +8°C° 0 mm 2 mps 760 mmHg 92%
    02:00 +8°C° 0 mm 2 mps 760 mmHg 91%
    03:00 +7°C° 0 mm 2 mps 760 mmHg 90%
    04:00 +7°C° 0 mm 2 mps 760 mmHg 90%
    05:00 +7°C° 0 mm 2 mps 761 mmHg 90%
    06:00 +7°C° 0 mm 2 mps 761 mmHg 90%
    07:00 +8°C° 0 mm 2 mps 761 mmHg 85%
    08:00 +10°C° 0 mm 1 mps 761 mmHg 80%
    09:00 +11°C° 0 mm 1 mps 761 mmHg 76%
    10:00 +12°C° 0 mm 2 mps 761 mmHg 71%
    11:00 +13°C° 0 mm 2 mps 761 mmHg 66%
    12:00 +14°C° 0 mm 2 mps 761 mmHg 62%
    13:00 +14°C° 0 mm 2 mps 761 mmHg 59%
    14:00 +14°C° 0 mm 2 mps 761 mmHg 56%
    15:00 +15°C° 0 mm 2 mps 761 mmHg 53%
    16:00 +13°C° 0 mm 1 mps 761 mmHg 59%
    17:00 +12°C° 0 mm 1 mps 761 mmHg 64%
    18:00 +10°C° 0 mm 1 mps 761 mmHg 69%
    19:00 +10°C° 0 mm 1 mps 761 mmHg 70%
    20:00 +10°C° 0 mm 1 mps 761 mmHg 71%
    21:00 +9°C° 0 mm 1 mps 761 mmHg 72%
    22:00 +8°C° 0 mm 2 mps 761 mmHg 72%
    23:00 +8°C° 0 mm 2 mps 761 mmHg 71%

    24 October, Thursday

    Time Temperature Precipitation Wind Pressure Humidity
    00:00 +8°C° 0 mm 2 mps 761 mmHg 71%
    01:00 +8°C° 0 mm 2 mps 760 mmHg 74%
    02:00 +8°C° 0 mm 3 mps 760 mmHg 77%
    03:00 +8°C° 0 mm 3 mps 760 mmHg 80%
    04:00 +8°C° 0 mm 3 mps 760 mmHg 81%
    05:00 +7°C° 0 mm 3 mps 760 mmHg 83%
    06:00 +7°C° 0 mm 3 mps 760 mmHg 85%
    07:00 +8°C° 0 mm 4 mps 760 mmHg 79%
    08:00 +10°C° 0 mm 4 mps 760 mmHg 74%
    09:00 +12°C° 0 mm 5 mps 760 mmHg 68%
    10:00 +13°C° 0 mm 5 mps 760 mmHg 63%
    11:00 +15°C° 0 mm 5 mps 760 mmHg 59%
    12:00 +16°C° 0 mm 5 mps 759 mmHg 54%
    13:00 +17°C° 0 mm 5 mps 759 mmHg 54%
    14:00 +17°C° 0 mm 5 mps 759 mmHg 53%
    15:00 +17°C° 0 mm 5 mps 759 mmHg 53%
    16:00 +16°C° 0 mm 5 mps 759 mmHg 57%
    17:00 +14°C° 0 mm 4 mps 759 mmHg 62%
    18:00 +13°C° 0 mm 4 mps 759 mmHg 67%
    19:00 +13°C° 0 mm 3 mps 759 mmHg 69%
    20:00 +12°C° 0 mm 3 mps 759 mmHg 71%
    21:00 +12°C° 0 mm 3 mps 759 mmHg 73%
    22:00 +11°C° 0 mm 3 mps 759 mmHg 75%
    23:00 +11°C° 0 mm 3 mps 759 mmHg 76%
    Show more